Погода в Стариграде

Хорватия     43°11′03″N   16°36′05″E
темп.,
°C
ветер,
м/с
пор.,
м/с
влажн.,
%
обл.,
%
осадки,
мм/ч
давл.,
гПа
погр.,
м
9 мая, вс
вс923:00+16сз33685 0.0 102062
02:00+15с23629 0.0 102044
05:00+15св11585 0.0 101920
08:00+16ссв11545 0.0 101954
11:00+19з21450 0.0 1020248
14:00+19з22474 0.0 1020398
17:00+19сз21535 0.0 1019218
20:00+17вюв22625 0.0 101915
10 мая, пн
пн1023:00+16в44545 0.0 102051
02:00+16вюв3356100 0.0 101936
05:00+16в4554100 0.0 101974
08:00+17вюв575440 0.0 1019197
11:00+18вюв68595 0.0 1019351
14:00+19юв68620 0.0 1019379
17:00+19вюв68710 0.0 1017304
20:00+17в57780 0.0 101793
11 мая, вт
вт1123:00+17в45785 0.0 101755
02:00+17в45765 0.0 101666
05:00+16в577699 0.0 1015104
08:00+18вюв69740 0.0 1014251
11:00+19вюв710734 0.0 1014394
14:00+19вюв711700 0.0 1013409
17:00+18вюв712671 0.0 1011359
20:00+18вюв1016744 0.0 1009370
12 мая, ср
ср1223:00+17вюв91578100 0.0 1009362
02:00+17юв101590100 0.2 1007476
05:00+17ююв688126 4.6 1006149
08:00+16ссз687699 8.4 1006354
11:00+17сз346417 0.1 1007357
14:00+18юз43625 0.1 1007595
17:00+18ююз11570 0.0 1007447
20:00+16вюв56735 0.0 1007150
13 мая, чт
чт1323:00+16юв577977 0.1 1007242
02:00+15с678097 3.3 1007178
05:00+15вюв117490 0.1 100778
08:00+15ю3267100 0.3 1008441
11:00+16ю225918 0.0 1008527
14:00+17ю22565 0.2 1008597
17:00+18юв34555 0.0 1008668
20:00+16вюв467877 0.0 1008259